Location: Clarks Summit,Pa.
(41.5000°N, 75.6000°W)
Time: 11:49:35
(UTC-05:00)

N. Korean satellite - Visible Passes

Search period start: 03 December 2022 00:00
Search period end: 13 December 2022 00:00
Orbit: 421 x 453 km, 97.3° (Epoch: 02 December)

Date Brightness Start Highest point End Pass type
(mag) Time Alt. Az. Time Alt. Az. Time Alt. Az.
03 Dec 6.3 05:22:55 10° NNE 05:26:20 88° E 05:29:43 10° SSW visible
03 Dec 9.6 17:25:41 10° SW 17:27:58 17° W 17:30:17 10° NW visible
04 Dec 8.8 04:44:34 10° NE 04:47:24 24° E 04:50:12 10° SSE visible
04 Dec 7.9 06:17:23 10° NNW 06:19:44 18° WNW 06:22:03 10° WSW visible
05 Dec 6.4 05:37:43 10° N 05:41:03 56° WNW 05:44:20 10° SSW visible
05 Dec 10.0 17:41:43 10° WSW 17:42:47 11° W 17:43:52 10° WNW visible
06 Dec 7.9 04:58:56 10° NNE 05:02:07 37° E 05:05:16 10° SSE visible
06 Dec 8.3 06:32:55 10° NW 06:34:15 12° WNW 06:35:35 10° W visible
06 Dec 8.4 17:00:29 10° SSW 17:03:36 35° W 17:06:46 10° NNW visible
07 Dec 9.8 04:21:36 10° ENE 04:22:56 12° E 04:24:16 10° ESE visible
07 Dec 6.9 05:52:28 10° N 05:55:36 35° WNW 05:58:39 10° SW visible
08 Dec 6.8 05:13:19 10° NNE 05:16:41 62° E 05:19:58 10° S visible
08 Dec 9.2 17:15:25 10° SSW 17:18:10 23° W 17:20:55 10° NW visible
09 Dec 9.2 04:35:07 10° NE 04:37:30 18° E 04:39:51 10° SE visible
09 Dec 7.5 06:07:14 10° NNW 06:09:57 23° WNW 06:12:38 10° SW visible
10 Dec 6.2 05:27:41 10° N 05:31:03 80° WNW 05:34:22 10° SSW visible
10 Dec 9.7 17:30:32 10° SW 17:32:36 15° W 17:34:40 10° NW visible
11 Dec 8.5 04:48:58 10° NE 04:51:53 27° E 04:54:45 10° SSE visible
11 Dec 8.0 06:22:04 10° NNW 06:24:09 16° WNW 06:26:12 10° WSW visible
12 Dec 6.5 05:42:00 10° N 05:45:15 48° WNW 05:48:28 10° SSW visible
